• In United Kingdom
  • List of Countries
  • For 7 days
  • Water Temperature
  • Satellite Maps
  • Weather Map
  • Weather Widgets
  • user-avatar
    Login

    Hourly Weather Kalgoorlie

    Today, 19 October, Thursday

    Time Temperature Precipitation Wind Pressure Humidity
    00:00 +15°C° 0 mm 7 mps 734 mmHg 40%
    01:00 +14°C° 0 mm 7 mps 734 mmHg 47%
    02:00 +12°C° 0 mm 7 mps 735 mmHg 55%
    03:00 +11°C° 0 mm 6 mps 735 mmHg 58%
    04:00 +11°C° 0 mm 6 mps 736 mmHg 61%
    05:00 +10°C° 0 mm 6 mps 736 mmHg 64%
    06:00 +13°C° 0 mm 6 mps 736 mmHg 60%
    07:00 +14°C° 0 mm 6 mps 737 mmHg 55%
    08:00 +15°C° 0 mm 7 mps 738 mmHg 51%
    09:00 +17°C° 0 mm 7 mps 738 mmHg 45%
    10:00 +19°C° 0 mm 6 mps 737 mmHg 39%
    11:00 +21°C° 0 mm 6 mps 737 mmHg 33%
    12:00 +22°C° 0 mm 6 mps 737 mmHg 29%
    13:00 +24°C° 0 mm 6 mps 736 mmHg 26%
    14:00 +26°C° 0 mm 6 mps 736 mmHg 23%
    15:00 +26°C° 0 mm 6 mps 736 mmHg 22%
    16:00 +26°C° 0 mm 6 mps 736 mmHg 22%
    17:00 +26°C° 0 mm 6 mps 736 mmHg 21%
    18:00 +24°C° 0 mm 6 mps 736 mmHg 23%
    19:00 +22°C° 0 mm 6 mps 737 mmHg 25%
    20:00 +21°C° 0 mm 6 mps 737 mmHg 27%
    21:00 +20°C° 0 mm 7 mps 738 mmHg 32%
    22:00 +18°C° 0 mm 8 mps 738 mmHg 36%
    23:00 +17°C° 0 mm 9 mps 738 mmHg 41%

    Tomorrow, 20 October, Friday

    Time Temperature Precipitation Wind Pressure Humidity
    00:00 +16°C° 0 mm 8 mps 738 mmHg 45%
    01:00 +15°C° 0 mm 8 mps 738 mmHg 50%
    02:00 +13°C° 0 mm 8 mps 738 mmHg 54%
    03:00 +12°C° 0 mm 7 mps 738 mmHg 58%
    04:00 +12°C° 0 mm 7 mps 738 mmHg 61%
    05:00 +11°C° 0 mm 7 mps 738 mmHg 65%
    06:00 +12°C° 0 mm 7 mps 739 mmHg 61%
    07:00 +14°C° 0 mm 7 mps 739 mmHg 56%
    08:00 +15°C° 0 mm 8 mps 739 mmHg 52%
    09:00 +18°C° 0 mm 8 mps 739 mmHg 42%
    10:00 +21°C° 0 mm 8 mps 739 mmHg 33%
    11:00 +23°C° 0 mm 9 mps 738 mmHg 23%
    12:00 +24°C° 0 mm 9 mps 738 mmHg 21%
    13:00 +27°C° 0 mm 8 mps 737 mmHg 18%
    14:00 +28°C° 0 mm 8 mps 736 mmHg 16%
    15:00 +27°C° 0 mm 8 mps 736 mmHg 17%
    16:00 +27°C° 0 mm 8 mps 736 mmHg 17%
    17:00 +27°C° 0 mm 7 mps 736 mmHg 18%
    18:00 +26°C° 0 mm 7 mps 736 mmHg 19%
    19:00 +23°C° 0 mm 6 mps 737 mmHg 21%
    20:00 +22°C° 0 mm 5 mps 737 mmHg 23%
    21:00 +21°C° 0 mm 6 mps 738 mmHg 26%
    22:00 +20°C° 0 mm 6 mps 738 mmHg 30%
    23:00 +20°C° 0 mm 7 mps 738 mmHg 33%

    Day after tomorrow, 21 October, Saturday

    Time Temperature Precipitation Wind Pressure Humidity
    00:00 +17°C° 0 mm 7 mps 738 mmHg 43%
    01:00 +16°C° 0 mm 8 mps 737 mmHg 53%
    02:00 +15°C° 0 mm 8 mps 737 mmHg 62%
    03:00 +13°C° 0 mm 8 mps 737 mmHg 64%
    04:00 +13°C° 0 mm 8 mps 737 mmHg 66%
    05:00 +12°C° 0 mm 7 mps 737 mmHg 68%
    06:00 +15°C° 0 mm 8 mps 737 mmHg 62%
    07:00 +16°C° 0 mm 8 mps 737 mmHg 56%
    08:00 +18°C° 0 mm 8 mps 737 mmHg 50%
    09:00 +21°C° 0 mm 8 mps 737 mmHg 42%
    10:00 +24°C° 0 mm 8 mps 736 mmHg 34%
    11:00 +28°C° 0 mm 8 mps 736 mmHg 26%
    12:00 +28°C° 0 mm 7 mps 735 mmHg 25%
    13:00 +29°C° 0 mm 7 mps 734 mmHg 23%
    14:00 +30°C° 0 mm 6 mps 734 mmHg 21%
    15:00 +30°C° 0 mm 5 mps 733 mmHg 21%
    16:00 +30°C° 0 mm 5 mps 733 mmHg 22%
    17:00 +29°C° 0 mm 4 mps 733 mmHg 22%
    18:00 +29°C° 0 mm 4 mps 733 mmHg 23%
    19:00 +28°C° 0 mm 5 mps 734 mmHg 25%
    20:00 +27°C° 0 mm 5 mps 734 mmHg 26%
    21:00 +26°C° 0 mm 6 mps 733 mmHg 26%
    22:00 +26°C° 0 mm 7 mps 733 mmHg 25%
    23:00 +24°C° 0 mm 8 mps 733 mmHg 25%

    22 October, Sunday

    Time Temperature Precipitation Wind Pressure Humidity
    00:00 +23°C° 0 mm 7 mps 733 mmHg 28%
    01:00 +22°C° 0 mm 7 mps 733 mmHg 30%
    02:00 +21°C° 0 mm 7 mps 732 mmHg 33%
    03:00 +21°C° 0 mm 7 mps 732 mmHg 35%
    04:00 +20°C° 0 mm 7 mps 732 mmHg 37%
    05:00 +20°C° 0 mm 8 mps 732 mmHg 40%
    06:00 +20°C° 0.1 mm 8 mps 732 mmHg 40%
    07:00 +21°C° 0.1 mm 8 mps 732 mmHg 39%
    08:00 +21°C° 0.1 mm 8 mps 732 mmHg 39%
    09:00 +23°C° 0.1 mm 9 mps 732 mmHg 39%
    10:00 +24°C° 0.1 mm 9 mps 731 mmHg 38%
    11:00 +26°C° 0.1 mm 10 mps 731 mmHg 38%
    12:00 +27°C° 0.2 mm 9 mps 730 mmHg 37%
    13:00 +28°C° 0.2 mm 8 mps 729 mmHg 35%
    14:00 +29°C° 0.2 mm 8 mps 728 mmHg 34%
    15:00 +29°C° 0.5 mm 7 mps 728 mmHg 36%
    16:00 +29°C° 0.5 mm 7 mps 728 mmHg 37%
    17:00 +29°C° 0.5 mm 7 mps 727 mmHg 39%
    18:00 +28°C° 1.1 mm 7 mps 727 mmHg 43%
    19:00 +27°C° 1.1 mm 7 mps 728 mmHg 47%
    20:00 +26°C° 1.1 mm 7 mps 728 mmHg 52%
    21:00 +24°C° 0 mm 8 mps 727 mmHg 49%
    22:00 +24°C° 0 mm 8 mps 727 mmHg 47%
    23:00 +24°C° 0 mm 9 mps 726 mmHg 45%

    23 October, Monday

    Time Temperature Precipitation Wind Pressure Humidity
    00:00 +23°C° 0.1 mm 9 mps 726 mmHg 48%
    01:00 +23°C° 0.1 mm 8 mps 725 mmHg 50%
    02:00 +22°C° 0.1 mm 8 mps 725 mmHg 53%
    03:00 +22°C° 0 mm 7 mps 725 mmHg 56%
    04:00 +22°C° 0 mm 6 mps 725 mmHg 58%
    05:00 +21°C° 0 mm 5 mps 725 mmHg 61%
    06:00 +23°C° 0 mm 5 mps 725 mmHg 53%
    07:00 +26°C° 0 mm 5 mps 725 mmHg 46%
    08:00 +28°C° 0 mm 5 mps 726 mmHg 39%
    09:00 +30°C° 0 mm 6 mps 726 mmHg 30%
    10:00 +32°C° 0 mm 7 mps 725 mmHg 22%
    11:00 +34°C° 0 mm 8 mps 725 mmHg 13%
    12:00 +34°C° 0 mm 9 mps 725 mmHg 12%
    13:00 +35°C° 0 mm 9 mps 724 mmHg 11%
    14:00 +35°C° 0 mm 9 mps 724 mmHg 11%
    15:00 +34°C° 0 mm 9 mps 724 mmHg 12%
    16:00 +34°C° 0 mm 8 mps 724 mmHg 13%
    17:00 +33°C° 0 mm 8 mps 724 mmHg 15%
    18:00 +32°C° 0 mm 7 mps 725 mmHg 17%
    19:00 +29°C° 0 mm 6 mps 725 mmHg 19%
    20:00 +27°C° 0 mm 5 mps 726 mmHg 21%
    21:00 +27°C° 0 mm 5 mps 726 mmHg 26%
    22:00 +26°C° 0 mm 5 mps 726 mmHg 32%
    23:00 +25°C° 0 mm 4 mps 726 mmHg 38%

    24 October, Tuesday

    Time Temperature Precipitation Wind Pressure Humidity
    00:00 +23°C° 0 mm 4 mps 726 mmHg 46%
    01:00 +22°C° 0 mm 4 mps 726 mmHg 54%
    02:00 +21°C° 0 mm 4 mps 726 mmHg 62%
    03:00 +20°C° 0 mm 4 mps 726 mmHg 65%
    04:00 +19°C° 0 mm 4 mps 727 mmHg 68%
    05:00 +19°C° 0 mm 4 mps 727 mmHg 71%
    06:00 +20°C° 0 mm 4 mps 728 mmHg 66%
    07:00 +21°C° 0 mm 4 mps 728 mmHg 62%
    08:00 +22°C° 0 mm 4 mps 729 mmHg 57%
    09:00 +23°C° 0 mm 4 mps 729 mmHg 51%
    10:00 +26°C° 0 mm 4 mps 729 mmHg 45%
    11:00 +27°C° 0 mm 4 mps 729 mmHg 38%
    12:00 +28°C° 0 mm 4 mps 729 mmHg 34%
    13:00 +29°C° 0 mm 4 mps 728 mmHg 30%
    14:00 +30°C° 0 mm 4 mps 728 mmHg 27%
    15:00 +30°C° 0 mm 4 mps 728 mmHg 26%
    16:00 +30°C° 0 mm 4 mps 728 mmHg 26%
    17:00 +30°C° 0 mm 4 mps 728 mmHg 25%
    18:00 +28°C° 0 mm 5 mps 728 mmHg 29%
    19:00 +27°C° 0 mm 6 mps 729 mmHg 33%
    20:00 +26°C° 0 mm 7 mps 729 mmHg 37%
    21:00 +23°C° 0 mm 8 mps 729 mmHg 42%
    22:00 +22°C° 0 mm 8 mps 729 mmHg 47%
    23:00 +21°C° 0 mm 8 mps 729 mmHg 52%
    Show more